EW6420 Weather Reports


time (UTC)temp
C
wind
direction
speed
KPH
gust
KPH
rain 1hr
cm
rain 24hr
cm
rain mn
cm
humidity
%
barometer
mb
20260509140005 8 16 0.0 0.0 0.00 0.00 0.00 88 1021.9
20260509134504 8 16 0.0 0.0 0.00 0.00 0.00 88 1022.0
20260509133005 8 16 0.0 0.0 0.00 0.00 0.00 87 1022.1
20260509131504 8 16 0.0 0.0 0.00 0.00 0.00 87 1022.1
20260509130007 8 16 0.0 0.0 0.00 0.00 0.00 86 1021.9
20260509124501 9 16 0.0 0.0 0.00 0.00 0.00 86 1021.9
20260509123002 9 16 0.0 0.0 0.00 0.00 0.00 85 1021.9
20260509121501 10 16 0.0 0.0 0.00 0.00 0.00 85 1021.9
20260509114503 10 16 0.0 0.0 0.00 0.00 0.00 84 1022.0
20260509113004 10 16 0.0 0.0 0.00 0.00 0.00 83 1022.0
20260509111501 10 16 0.0 0.0 0.00 0.00 0.00 82 1022.0
20260509110004 11 16 0.0 0.0 0.00 0.00 0.00 82 1022.0
20260509104502 11 16 0.0 0.0 0.00 0.00 0.00 81 1022.1
20260509103003 11 16 0.0 0.0 0.00 0.00 0.00 79 1022.1
20260509101503 12 16 0.0 0.0 0.00 0.00 0.00 79 1022.2
20260509100006 12 16 0.0 0.0 0.00 0.00 0.00 78 1022.4
20260509094501 12 16 0.0 0.0 0.00 0.00 0.00 78 1022.5
20260509093001 12 16 0.0 0.0 0.00 0.00 0.00 78 1022.6
20260509091502 12 16 0.0 0.0 0.00 0.00 0.00 77 1022.6
20260509090006 12 16 0.0 0.0 0.00 0.00 0.00 77 1022.6
20260509084502 12 16 0.0 0.0 0.00 0.00 0.00 77 1022.7
20260509083001 12 16 0.0 0.0 0.00 0.00 0.00 77 1022.7
20260509081503 12 16 0.0 0.0 0.00 0.00 0.00 77 1022.7
20260509080005 12 16 0.0 0.0 0.00 0.00 0.00 76 1022.7
20260509074505 12 16 0.0 0.0 0.00 0.00 0.00 76 1022.6
20260509073006 12 16 0.0 0.0 0.00 0.00 0.00 76 1022.7
20260509071504 12 16 0.0 0.0 0.00 0.00 0.00 76 1022.6
20260509064504 12 16 0.0 0.0 0.00 0.00 0.00 76 1022.6
20260509063005 12 16 0.0 0.0 0.00 0.00 0.00 76 1022.5
20260509061505 12 16 0.0 0.0 0.00 0.00 0.00 74 1022.5
20260509060006 12 16 0.0 0.0 0.00 0.00 0.00 74 1022.3
20260509054505 12 16 0.0 0.0 0.00 0.00 0.00 74 1022.4
20260509050006 12 16 0.0 0.0 0.00 0.00 0.00 73 1022.2
20260509043005 12 16 0.0 0.0 0.00 0.00 0.00 71 1022.2
20260509041505 13 16 0.0 0.0 0.00 0.00 0.00 70 1022.0
20260509040005 13 16 0.0 0.0 0.00 0.00 0.00 69 1021.9
20260509034504 13 16 0.0 3.2 0.00 0.00 0.00 67 1021.7
20260509031505 15 16 0.0 3.2 0.00 0.00 0.00 64 1021.3
20260509024504 15 16 0.0 0.0 0.00 0.00 0.00 62 1021.0
20260509021504 15 16 0.0 3.2 0.00 0.00 0.00 59 1020.9
20260509020005 16 16 0.0 3.2 0.00 0.00 0.00 58 1020.9
20260509014504 16 16 0.0 3.2 0.00 0.00 0.00 58 1020.9
20260509011504 16 21 0.0 3.2 0.00 0.00 0.00 55 1021.0
20260509010004 16 21 0.0 3.2 0.00 0.00 0.00 55 1021.0
20260509003006 16 304 0.0 3.2 0.00 0.00 0.00 55 1021.0
20260509001503 16 304 0.0 3.2 0.00 0.00 0.00 55 1021.0
20260509000005 16 304 0.0 3.2 0.00 0.00 0.00 53 1021.0
20260508233003 16 21 0.0 3.2 0.00 0.00 0.00 54 1020.8
20260508231503 16 211 0.0 4.8 0.00 0.00 0.00 52 1020.8
20260508223004 16 25 0.0 4.8 0.00 0.00 0.00 53 1021.0
20260508220008 15 206 0.0 3.2 0.00 0.00 0.00 55 1020.9
20260508214504 15 185 0.0 3.2 0.00 0.00 0.00 54 1021.1
20260508213005 15 40 0.0 3.2 0.00 0.00 0.00 54 1021.0
20260508211504 15 31 0.0 3.2 0.00 0.00 0.00 56 1021.1
20260508210005 15 7 1.6 3.2 0.00 0.00 0.00 57 1021.0
20260508204502 15 360 1.6 4.8 0.00 0.00 0.00 56 1020.8
20260508201503 14 329 0.0 3.2 0.00 0.00 0.00 57 1020.7
20260508200006 14 239 1.6 6.4 0.00 0.00 0.00 57 1020.8
20260508194504 14 21 1.6 6.4 0.00 0.00 0.00 59 1020.7
20260508193005 13 200 0.0 3.2 0.00 0.00 0.00 62 1020.7
20260508191504 13 332 0.0 4.8 0.00 0.00 0.00 61 1020.7
20260508190004 13 197 0.0 4.8 0.00 0.00 0.00 61 1020.7
20260508184504 12 21 0.0 4.8 0.00 0.00 0.00 64 1020.7
20260508183003 12 32 0.0 3.2 0.00 0.00 0.00 66 1020.8
20260508181504 12 58 0.0 3.2 0.00 0.00 0.00 68 1020.5
20260508180005 11 16 0.0 3.2 0.00 0.00 0.00 70 1020.4
20260508174504 11 16 0.0 3.2 0.00 0.00 0.00 70 1020.2
20260508173004 11 6 0.0 3.2 0.00 0.00 0.00 71 1020.2
20260508171503 11 21 1.6 6.4 0.00 0.00 0.00 71 1019.8
20260508170005 11 16 0.0 3.2 0.00 0.00 0.00 73 1019.6
20260508163003 10 206 0.0 3.2 0.00 0.00 0.00 74 1019.2
20260508161503 10 206 0.0 3.2 0.00 0.00 0.00 74 1019.1
20260508160002 10 206 0.0 3.2 0.00 0.00 0.00 75 1019.2
20260508154502 10 206 0.0 4.8 0.00 0.00 0.00 75 1019.2
20260508153001 10 152 0.0 3.2 0.00 0.00 0.00 78 1019.4
20260508150006 9 65 0.0 3.2 0.00 0.00 0.00 81 1019.6
20260508144502 9 65 0.0 3.2 0.00 0.00 0.00 82 1019.4
20260508143005 9 87 0.0 3.2 0.00 0.00 0.00 82 1019.2